owner,sensor,date,latitude,longitude,air_temperature,qcFlag 
DISL,ioos:station:DISL:PPTA:1,2014-06-01T00:00:00Z,30.2791,-87.5561,24.27,1111122 
DISL,ioos:station:DISL:PPTA:1,2014-06-01T00:30:00Z,30.2791,-87.5561,24.2,1111122 
DISL,ioos:station:DISL:PPTA:1,2014-06-01T01:00:00Z,30.2791,-87.5561,24.12,1111122 
DISL,ioos:station:DISL:PPTA:1,2014-06-01T01:30:00Z,30.2791,-87.5561,23.95,1111122 
DISL,ioos:station:DISL:PPTA:1,2014-06-01T02:00:00Z,30.2791,-87.5561,23.95,1111122 
DISL,ioos:station:DISL:PPTA:1,2014-06-01T02:30:00Z,30.2791,-87.5561,24.15,1111122 
DISL,ioos:station:DISL:PPTA:1,2014-06-01T03:00:00Z,30.2791,-87.5561,24.94,1111122 
DISL,ioos:station:DISL:PPTA:1,2014-06-01T03:30:00Z,30.2791,-87.5561,25.45,1111122 
DISL,ioos:station:DISL:PPTA:1,2014-06-01T04:00:00Z,30.2791,-87.5561,25.59,1111122 
DISL,ioos:station:DISL:PPTA:1,2014-06-01T04:30:00Z,30.2791,-87.5561,25.42,1111122 
DISL,ioos:station:DISL:PPTA:1,2014-06-01T05:00:00Z,30.2791,-87.5561,25.45,1111122 
DISL,ioos:station:DISL:PPTA:1,2014-06-01T05:30:00Z,30.2791,-87.5561,25.45,1111122 
DISL,ioos:station:DISL:PPTA:1,2014-06-01T06:00:00Z,30.2791,-87.5561,25.42,1111122 
DISL,ioos:station:DISL:PPTA:1,2014-06-01T06:30:00Z,30.2791,-87.5561,25.38,1111122 
DISL,ioos:station:DISL:PPTA:1,2014-06-01T07:00:00Z,30.2791,-87.5561,25.45,1111122 
DISL,ioos:station:DISL:PPTA:1,2014-06-01T07:30:00Z,30.2791,-87.5561,25.28,1111122 
DISL,ioos:station:DISL:PPTA:1,2014-06-01T08:00:00Z,30.2791,-87.5561,25.35,1111122 
DISL,ioos:station:DISL:PPTA:1,2014-06-01T08:30:00Z,30.2791,-87.5561,25.42,1111122 
DISL,ioos:station:DISL:PPTA:1,2014-06-01T09:00:00Z,30.2791,-87.5561,25.01,1111122 
DISL,ioos:station:DISL:PPTA:1,2014-06-01T09:30:00Z,30.2791,-87.5561,24.26,1111122 
DISL,ioos:station:DISL:PPTA:1,2014-06-01T10:00:00Z,30.2791,-87.5561,24.12,1111122 
DISL,ioos:station:DISL:PPTA:1,2014-06-01T10:30:00Z,30.2791,-87.5561,24.09,1111122 
DISL,ioos:station:DISL:PPTA:1,2014-06-01T11:00:00Z,30.2791,-87.5561,24.22,1111122 
DISL,ioos:station:DISL:PPTA:1,2014-06-01T11:30:00Z,30.2791,-87.5561,24.29,1111122 
DISL,ioos:station:DISL:PPTA:1,2014-06-01T12:00:00Z,30.2791,-87.5561,24.53,1111122 
DISL,ioos:station:DISL:PPTA:1,2014-06-01T12:30:00Z,30.2791,-87.5561,24.63,1111122 
DISL,ioos:station:DISL:PPTA:1,2014-06-01T13:00:00Z,30.2791,-87.5561,24.7,1111122 
DISL,ioos:station:DISL:PPTA:1,2014-06-01T13:30:00Z,30.2791,-87.5561,24.77,1111122 
DISL,ioos:station:DISL:PPTA:1,2014-06-01T14:00:00Z,30.2791,-87.5561,24.79,1111122 
DISL,ioos:station:DISL:PPTA:1,2014-06-01T14:30:00Z,30.2791,-87.5561,24.99,1111122 
DISL,ioos:station:DISL:PPTA:1,2014-06-01T15:00:00Z,30.2791,-87.5561,25.97,1111122 
DISL,ioos:station:DISL:PPTA:1,2014-06-01T15:30:00Z,30.2791,-87.5561,26.1,1111122 
DISL,ioos:station:DISL:PPTA:1,2014-06-01T16:00:00Z,30.2791,-87.5561,26.19,1111122 
DISL,ioos:station:DISL:PPTA:1,2014-06-01T16:30:00Z,30.2791,-87.5561,26.43,1111122 
DISL,ioos:station:DISL:PPTA:1,2014-06-01T17:00:00Z,30.2791,-87.5561,26.33,1111122 
DISL,ioos:station:DISL:PPTA:1,2014-06-01T17:30:00Z,30.2791,-87.5561,26.12,1111122 
DISL,ioos:station:DISL:PPTA:1,2014-06-01T18:00:00Z,30.2791,-87.5561,26.33,1111122 
DISL,ioos:station:DISL:PPTA:1,2014-06-01T18:30:00Z,30.2791,-87.5561,26.5,1111122 
DISL,ioos:station:DISL:PPTA:1,2014-06-01T19:00:00Z,30.2791,-87.5561,26.94,1111122 
DISL,ioos:station:DISL:PPTA:1,2014-06-01T19:30:00Z,30.2791,-87.5561,26.87,1111122 
DISL,ioos:station:DISL:PPTA:1,2014-06-01T20:00:00Z,30.2791,-87.5561,27.28,1111122 
DISL,ioos:station:DISL:PPTA:1,2014-06-01T20:30:00Z,30.2791,-87.5561,26.87,1111122 
DISL,ioos:station:DISL:PPTA:1,2014-06-01T21:00:00Z,30.2791,-87.5561,27.14,1111122 
DISL,ioos:station:DISL:PPTA:1,2014-06-01T21:30:00Z,30.2791,-87.5561,27.11,1111122 
DISL,ioos:station:DISL:PPTA:1,2014-06-01T22:00:00Z,30.2791,-87.5561,27.08,1111122 
DISL,ioos:station:DISL:PPTA:1,2014-06-01T22:30:00Z,30.2791,-87.5561,27.11,1111122 
DISL,ioos:station:DISL:PPTA:1,2014-06-01T23:00:00Z,30.2791,-87.5561,27.11,1111122 
DISL,ioos:station:DISL:PPTA:1,2014-06-01T23:30:00Z,30.2791,-87.5561,27.01,1111122 
DISL,ioos:station:DISL:PPTA:1,2014-06-02T00:00:00Z,30.2791,-87.5561,26.53,1111122 
DISL,ioos:station:DISL:PPTA:1,2014-06-02T00:30:00Z,30.2791,-87.5561,26.2,1111122 
DISL,ioos:station:DISL:PPTA:1,2014-06-02T01:00:00Z,30.2791,-87.5561,26.11,1111122 
DISL,ioos:station:DISL:PPTA:1,2014-06-02T01:30:00Z,30.2791,-87.5561,26.11,1111122 
DISL,ioos:station:DISL:PPTA:1,2014-06-02T02:00:00Z,30.2791,-87.5561,26.08,1111122 
DISL,ioos:station:DISL:PPTA:1,2014-06-02T02:30:00Z,30.2791,-87.5561,25.97,1111122 
DISL,ioos:station:DISL:PPTA:1,2014-06-02T03:00:00Z,30.2791,-87.5561,25.94,1111122 
DISL,ioos:station:DISL:PPTA:1,2014-06-02T03:30:00Z,30.2791,-87.5561,25.91,1111122 
DISL,ioos:station:DISL:PPTA:1,2014-06-02T04:00:00Z,30.2791,-87.5561,25.87,1111122 
DISL,ioos:station:DISL:PPTA:1,2014-06-02T04:30:00Z,30.2791,-87.5561,25.33,1111122 
DISL,ioos:station:DISL:PPTA:1,2014-06-02T05:00:00Z,30.2791,-87.5561,25.39,1111122 
DISL,ioos:station:DISL:PPTA:1,2014-06-02T05:30:00Z,30.2791,-87.5561,25.36,1111122 
DISL,ioos:station:DISL:PPTA:1,2014-06-02T06:00:00Z,30.2791,-87.5561,25.4,1111122 
DISL,ioos:station:DISL:PPTA:1,2014-06-02T06:30:00Z,30.2791,-87.5561,25.33,1111122 
DISL,ioos:station:DISL:PPTA:1,2014-06-02T07:00:00Z,30.2791,-87.5561,25.33,1111122 
DISL,ioos:station:DISL:PPTA:1,2014-06-02T07:30:00Z,30.2791,-87.5561,25.23,1111122 
DISL,ioos:station:DISL:PPTA:1,2014-06-02T08:00:00Z,30.2791,-87.5561,24.83,1111122 
DISL,ioos:station:DISL:PPTA:1,2014-06-02T08:30:00Z,30.2791,-87.5561,24.97,1111122 
DISL,ioos:station:DISL:PPTA:1,2014-06-02T09:00:00Z,30.2791,-87.5561,24.9,1111122 
DISL,ioos:station:DISL:PPTA:1,2014-06-02T09:30:00Z,30.2791,-87.5561,24.6,1111122 
DISL,ioos:station:DISL:PPTA:1,2014-06-02T10:00:00Z,30.2791,-87.5561,23.85,1111122 
DISL,ioos:station:DISL:PPTA:1,2014-06-02T10:30:00Z,30.2791,-87.5561,23.61,1111122 
DISL,ioos:station:DISL:PPTA:1,2014-06-02T11:00:00Z,30.2791,-87.5561,23.37,1111122 
DISL,ioos:station:DISL:PPTA:1,2014-06-02T11:30:00Z,30.2791,-87.5561,23.27,1111122 
DISL,ioos:station:DISL:PPTA:1,2014-06-02T12:00:00Z,30.2791,-87.5561,23.34,1111122 
DISL,ioos:station:DISL:PPTA:1,2014-06-02T12:30:00Z,30.2791,-87.5561,23.34,1111122 
DISL,ioos:station:DISL:PPTA:1,2014-06-02T13:00:00Z,30.2791,-87.5561,23.47,1111122 
DISL,ioos:station:DISL:PPTA:1,2014-06-02T13:30:00Z,30.2791,-87.5561,23.3,1111122 
DISL,ioos:station:DISL:PPTA:1,2014-06-02T14:00:00Z,30.2791,-87.5561,23.54,1111122 
DISL,ioos:station:DISL:PPTA:1,2014-06-02T14:30:00Z,30.2791,-87.5561,23.78,1111122 
DISL,ioos:station:DISL:PPTA:1,2014-06-02T15:00:00Z,30.2791,-87.5561,24.12,1111122 
DISL,ioos:station:DISL:PPTA:1,2014-06-02T15:30:00Z,30.2791,-87.5561,24.5,1111122 
DISL,ioos:station:DISL:PPTA:1,2014-06-02T16:00:00Z,30.2791,-87.5561,24.72,1111122 
DISL,ioos:station:DISL:PPTA:1,2014-06-02T16:30:00Z,30.2791,-87.5561,25.02,1111122 
DISL,ioos:station:DISL:PPTA:1,2014-06-02T17:00:00Z,30.2791,-87.5561,24.85,1111122 
DISL,ioos:station:DISL:PPTA:1,2014-06-02T17:30:00Z,30.2791,-87.5561,25.09,1111122 
DISL,ioos:station:DISL:PPTA:1,2014-06-02T18:00:00Z,30.2791,-87.5561,25.39,1111122 
DISL,ioos:station:DISL:PPTA:1,2014-06-02T18:30:00Z,30.2791,-87.5561,25.53,1111122 
DISL,ioos:station:DISL:PPTA:1,2014-06-02T19:00:00Z,30.2791,-87.5561,25.91,1111122 
DISL,ioos:station:DISL:PPTA:1,2014-06-02T19:30:00Z,30.2791,-87.5561,25.67,1111122 
DISL,ioos:station:DISL:PPTA:1,2014-06-02T20:00:00Z,30.2791,-87.5561,26.45,1111122 
DISL,ioos:station:DISL:PPTA:1,2014-06-02T20:30:00Z,30.2791,-87.5561,24.06,1111122 
DISL,ioos:station:DISL:PPTA:1,2014-06-02T21:00:00Z,30.2791,-87.5561,25.7,1111122 
DISL,ioos:station:DISL:PPTA:1,2014-06-02T21:30:00Z,30.2791,-87.5561,25.94,1111122 
DISL,ioos:station:DISL:PPTA:1,2014-06-02T22:00:00Z,30.2791,-87.5561,25.6,1111122 
DISL,ioos:station:DISL:PPTA:1,2014-06-02T22:30:00Z,30.2791,-87.5561,25.77,1111122 
DISL,ioos:station:DISL:PPTA:1,2014-06-02T23:00:00Z,30.2791,-87.5561,25.05,1111122 
DISL,ioos:station:DISL:PPTA:1,2014-06-02T23:30:00Z,30.2791,-87.5561,24.71,1111122 
DISL,ioos:station:DISL:PPTA:1,2014-06-03T00:00:00Z,30.2791,-87.5561,24.82,1111122 
DISL,ioos:station:DISL:PPTA:1,2014-06-03T00:30:00Z,30.2791,-87.5561,24.8,1111122 
DISL,ioos:station:DISL:PPTA:1,2014-06-03T01:00:00Z,30.2791,-87.5561,24.87,1111122 
DISL,ioos:station:DISL:PPTA:1,2014-06-03T01:30:00Z,30.2791,-87.5561,25.04,1111122 
DISL,ioos:station:DISL:PPTA:1,2014-06-03T02:00:00Z,30.2791,-87.5561,24.87,1111122 
DISL,ioos:station:DISL:PPTA:1,2014-06-03T02:30:00Z,30.2791,-87.5561,24.87,1111122 
DISL,ioos:station:DISL:PPTA:1,2014-06-03T03:00:00Z,30.2791,-87.5561,25.55,1111122 
DISL,ioos:station:DISL:PPTA:1,2014-06-03T03:30:00Z,30.2791,-87.5561,25.55,1111122 
DISL,ioos:station:DISL:PPTA:1,2014-06-03T04:00:00Z,30.2791,-87.5561,25.58,1111122 
DISL,ioos:station:DISL:PPTA:1,2014-06-03T04:30:00Z,30.2791,-87.5561,25.61,1111122 
DISL,ioos:station:DISL:PPTA:1,2014-06-03T05:00:00Z,30.2791,-87.5561,25.51,1111122 
DISL,ioos:station:DISL:PPTA:1,2014-06-03T05:30:00Z,30.2791,-87.5561,25.54,1111122 
DISL,ioos:station:DISL:PPTA:1,2014-06-03T06:00:00Z,30.2791,-87.5561,25.51,1111122 
DISL,ioos:station:DISL:PPTA:1,2014-06-03T06:30:00Z,30.2791,-87.5561,25.54,1111122 
DISL,ioos:station:DISL:PPTA:1,2014-06-03T07:00:00Z,30.2791,-87.5561,25.54,1111122 
DISL,ioos:station:DISL:PPTA:1,2014-06-03T07:30:00Z,30.2791,-87.5561,25.61,1111122 
DISL,ioos:station:DISL:PPTA:1,2014-06-03T08:00:00Z,30.2791,-87.5561,25.61,1111122 
DISL,ioos:station:DISL:PPTA:1,2014-06-03T08:30:00Z,30.2791,-87.5561,24.24,1111122 
DISL,ioos:station:DISL:PPTA:1,2014-06-03T09:00:00Z,30.2791,-87.5561,24.29,1111122 
DISL,ioos:station:DISL:PPTA:1,2014-06-03T09:30:00Z,30.2791,-87.5561,22.89,1111122 
DISL,ioos:station:DISL:PPTA:1,2014-06-03T10:00:00Z,30.2791,-87.5561,22.07,1111122 
DISL,ioos:station:DISL:PPTA:1,2014-06-03T10:30:00Z,30.2791,-87.5561,22.22,1111122 
DISL,ioos:station:DISL:PPTA:1,2014-06-03T11:00:00Z,30.2791,-87.5561,22.13,1111122 
DISL,ioos:station:DISL:PPTA:1,2014-06-03T11:30:00Z,30.2791,-87.5561,22.3,1111122 
DISL,ioos:station:DISL:PPTA:1,2014-06-03T12:00:00Z,30.2791,-87.5561,22.3,1111122 
DISL,ioos:station:DISL:PPTA:1,2014-06-03T12:30:00Z,30.2791,-87.5561,22.3,1111122 
DISL,ioos:station:DISL:PPTA:1,2014-06-03T13:00:00Z,30.2791,-87.5561,22.5,1111122 
DISL,ioos:station:DISL:PPTA:1,2014-06-03T13:30:00Z,30.2791,-87.5561,22.61,1111122 
DISL,ioos:station:DISL:PPTA:1,2014-06-03T14:00:00Z,30.2791,-87.5561,22.74,1111122 
DISL,ioos:station:DISL:PPTA:1,2014-06-03T14:30:00Z,30.2791,-87.5561,22.78,1111122 
DISL,ioos:station:DISL:PPTA:1,2014-06-03T15:00:00Z,30.2791,-87.5561,22.71,1111122 
DISL,ioos:station:DISL:PPTA:1,2014-06-03T15:30:00Z,30.2791,-87.5561,22.44,1111122 
DISL,ioos:station:DISL:PPTA:1,2014-06-03T16:00:00Z,30.2791,-87.5561,22.74,1111122 
DISL,ioos:station:DISL:PPTA:1,2014-06-03T16:30:00Z,30.2791,-87.5561,23.02,1111122 
DISL,ioos:station:DISL:PPTA:1,2014-06-03T17:00:00Z,30.2791,-87.5561,24.36,1111122 
DISL,ioos:station:DISL:PPTA:1,2014-06-03T17:30:00Z,30.2791,-87.5561,24.7,1111122 
DISL,ioos:station:DISL:PPTA:1,2014-06-03T18:00:00Z,30.2791,-87.5561,25.6,1111122 
DISL,ioos:station:DISL:PPTA:1,2014-06-03T18:30:00Z,30.2791,-87.5561,25.5,1111122 
DISL,ioos:station:DISL:PPTA:1,2014-06-03T19:00:00Z,30.2791,-87.5561,25.89,1111122 
DISL,ioos:station:DISL:PPTA:1,2014-06-03T19:30:00Z,30.2791,-87.5561,25.89,1111122 
DISL,ioos:station:DISL:PPTA:1,2014-06-03T20:00:00Z,30.2791,-87.5561,26.03,1111122 
DISL,ioos:station:DISL:PPTA:1,2014-06-03T20:30:00Z,30.2791,-87.5561,25.85,1111122 
DISL,ioos:station:DISL:PPTA:1,2014-06-03T21:00:00Z,30.2791,-87.5561,25.82,1111122 
DISL,ioos:station:DISL:PPTA:1,2014-06-03T21:30:00Z,30.2791,-87.5561,25.86,1111122 
DISL,ioos:station:DISL:PPTA:1,2014-06-03T22:00:00Z,30.2791,-87.5561,25.9,1111122 
DISL,ioos:station:DISL:PPTA:1,2014-06-03T22:30:00Z,30.2791,-87.5561,26.25,1111122 
DISL,ioos:station:DISL:PPTA:1,2014-06-03T23:00:00Z,30.2791,-87.5561,26.45,1111122 
DISL,ioos:station:DISL:PPTA:1,2014-06-03T23:30:00Z,30.2791,-87.5561,25.87,1111122 
DISL,ioos:station:DISL:PPTA:1,2014-06-04T00:00:00Z,30.2791,-87.5561,26.01,1111122 
DISL,ioos:station:DISL:PPTA:1,2014-06-04T00:30:00Z,30.2791,-87.5561,25.56,1111122 
DISL,ioos:station:DISL:PPTA:1,2014-06-04T01:00:00Z,30.2791,-87.5561,25.33,1111122 
DISL,ioos:station:DISL:PPTA:1,2014-06-04T01:30:00Z,30.2791,-87.5561,25.2,1111122 
DISL,ioos:station:DISL:PPTA:1,2014-06-04T02:00:00Z,30.2791,-87.5561,25.21,1111122 
DISL,ioos:station:DISL:PPTA:1,2014-06-04T02:30:00Z,30.2791,-87.5561,25.11,1111122 
DISL,ioos:station:DISL:PPTA:1,2014-06-04T03:00:00Z,30.2791,-87.5561,25.18,1111122 
DISL,ioos:station:DISL:PPTA:1,2014-06-04T03:30:00Z,30.2791,-87.5561,25.11,1111122 
DISL,ioos:station:DISL:PPTA:1,2014-06-04T04:00:00Z,30.2791,-87.5561,25.11,1111122 
DISL,ioos:station:DISL:PPTA:1,2014-06-04T04:30:00Z,30.2791,-87.5561,25.08,1111122 
DISL,ioos:station:DISL:PPTA:1,2014-06-04T05:00:00Z,30.2791,-87.5561,25.11,1111122 
DISL,ioos:station:DISL:PPTA:1,2014-06-04T05:30:00Z,30.2791,-87.5561,25.18,1111122 
DISL,ioos:station:DISL:PPTA:1,2014-06-04T06:00:00Z,30.2791,-87.5561,24.94,1111122 
DISL,ioos:station:DISL:PPTA:1,2014-06-04T06:30:00Z,30.2791,-87.5561,24.73,1111122 
DISL,ioos:station:DISL:PPTA:1,2014-06-04T07:00:00Z,30.2791,-87.5561,24.67,1111122 
DISL,ioos:station:DISL:PPTA:1,2014-06-04T07:30:00Z,30.2791,-87.5561,24.6,1111122 
DISL,ioos:station:DISL:PPTA:1,2014-06-04T08:00:00Z,30.2791,-87.5561,24.5,1111122 
DISL,ioos:station:DISL:PPTA:1,2014-06-04T08:30:00Z,30.2791,-87.5561,24.36,1111122 
DISL,ioos:station:DISL:PPTA:1,2014-06-04T09:00:00Z,30.2791,-87.5561,24.43,1111122 
DISL,ioos:station:DISL:PPTA:1,2014-06-04T09:30:00Z,30.2791,-87.5561,24.5,1111122 
DISL,ioos:station:DISL:PPTA:1,2014-06-04T10:00:00Z,30.2791,-87.5561,24.36,1111122 
DISL,ioos:station:DISL:PPTA:1,2014-06-04T10:30:00Z,30.2791,-87.5561,24.36,1111122 
DISL,ioos:station:DISL:PPTA:1,2014-06-04T11:00:00Z,30.2791,-87.5561,24.43,1111122 
DISL,ioos:station:DISL:PPTA:1,2014-06-04T11:30:00Z,30.2791,-87.5561,24.73,1111122 
DISL,ioos:station:DISL:PPTA:1,2014-06-04T12:00:00Z,30.2791,-87.5561,24.9,1111122 
DISL,ioos:station:DISL:PPTA:1,2014-06-04T12:30:00Z,30.2791,-87.5561,25.22,1111122 
DISL,ioos:station:DISL:PPTA:1,2014-06-04T13:00:00Z,30.2791,-87.5561,25.48,1111122 
DISL,ioos:station:DISL:PPTA:1,2014-06-04T13:30:00Z,30.2791,-87.5561,25.94,1111122 
DISL,ioos:station:DISL:PPTA:1,2014-06-04T14:00:00Z,30.2791,-87.5561,25.96,1111122 
DISL,ioos:station:DISL:PPTA:1,2014-06-04T14:30:00Z,30.2791,-87.5561,26.2,1111122 
DISL,ioos:station:DISL:PPTA:1,2014-06-04T15:00:00Z,30.2791,-87.5561,26.44,1111122 
DISL,ioos:station:DISL:PPTA:1,2014-06-04T15:30:00Z,30.2791,-87.5561,26.15,1111122 
DISL,ioos:station:DISL:PPTA:1,2014-06-04T16:00:00Z,30.2791,-87.5561,26.38,1111122 
DISL,ioos:station:DISL:PPTA:1,2014-06-04T16:30:00Z,30.2791,-87.5561,26.55,1111122 
DISL,ioos:station:DISL:PPTA:1,2014-06-04T17:00:00Z,30.2791,-87.5561,26.52,1111122 
DISL,ioos:station:DISL:PPTA:1,2014-06-04T17:30:00Z,30.2791,-87.5561,26.55,1111122 
DISL,ioos:station:DISL:PPTA:1,2014-06-04T18:00:00Z,30.2791,-87.5561,26.84,1111122 
DISL,ioos:station:DISL:PPTA:1,2014-06-04T18:30:00Z,30.2791,-87.5561,26.78,1111122 
DISL,ioos:station:DISL:PPTA:1,2014-06-04T19:00:00Z,30.2791,-87.5561,26.75,1111122 
DISL,ioos:station:DISL:PPTA:1,2014-06-04T19:30:00Z,30.2791,-87.5561,27.26,1111122 
DISL,ioos:station:DISL:PPTA:1,2014-06-04T20:00:00Z,30.2791,-87.5561,27.33,1111122 
DISL,ioos:station:DISL:PPTA:1,2014-06-04T20:30:00Z,30.2791,-87.5561,27.5,1111122 
DISL,ioos:station:DISL:PPTA:1,2014-06-04T21:00:00Z,30.2791,-87.5561,27.73,1111122 
DISL,ioos:station:DISL:PPTA:1,2014-06-04T21:30:00Z,30.2791,-87.5561,27.95,1111122 
DISL,ioos:station:DISL:PPTA:1,2014-06-04T22:00:00Z,30.2791,-87.5561,27.86,1111122 
DISL,ioos:station:DISL:PPTA:1,2014-06-04T22:30:00Z,30.2791,-87.5561,27.48,1111122 
DISL,ioos:station:DISL:PPTA:1,2014-06-04T23:00:00Z,30.2791,-87.5561,27.59,1111122 
DISL,ioos:station:DISL:PPTA:1,2014-06-04T23:30:00Z,30.2791,-87.5561,27.11,1111122 
DISL,ioos:station:DISL:PPTA:1,2014-06-05T00:00:00Z,30.2791,-87.5561,26.7,1111122 
DISL,ioos:station:DISL:PPTA:1,2014-06-05T00:30:00Z,30.2791,-87.5561,26.19,1111122 
DISL,ioos:station:DISL:PPTA:1,2014-06-05T01:00:00Z,30.2791,-87.5561,25.73,1111122 
DISL,ioos:station:DISL:PPTA:1,2014-06-05T01:30:00Z,30.2791,-87.5561,25.84,1111122 
DISL,ioos:station:DISL:PPTA:1,2014-06-05T02:00:00Z,30.2791,-87.5561,25.63,1111122 
DISL,ioos:station:DISL:PPTA:1,2014-06-05T02:30:00Z,30.2791,-87.5561,25.74,1111122 
DISL,ioos:station:DISL:PPTA:1,2014-06-05T03:00:00Z,30.2791,-87.5561,25.68,1111122 
DISL,ioos:station:DISL:PPTA:1,2014-06-05T03:30:00Z,30.2791,-87.5561,25.65,1111122 
DISL,ioos:station:DISL:PPTA:1,2014-06-05T04:00:00Z,30.2791,-87.5561,25.55,1111122 
DISL,ioos:station:DISL:PPTA:1,2014-06-05T04:30:00Z,30.2791,-87.5561,25.55,1111122 
DISL,ioos:station:DISL:PPTA:1,2014-06-05T05:00:00Z,30.2791,-87.5561,25.48,1111122 
DISL,ioos:station:DISL:PPTA:1,2014-06-05T05:30:00Z,30.2791,-87.5561,25.28,1111122 
DISL,ioos:station:DISL:PPTA:1,2014-06-05T06:00:00Z,30.2791,-87.5561,25.35,1111122 
DISL,ioos:station:DISL:PPTA:1,2014-06-05T06:30:00Z,30.2791,-87.5561,25.31,1111122 
DISL,ioos:station:DISL:PPTA:1,2014-06-05T07:00:00Z,30.2791,-87.5561,25.18,1111122 
DISL,ioos:station:DISL:PPTA:1,2014-06-05T07:30:00Z,30.2791,-87.5561,25.21,1111122 
DISL,ioos:station:DISL:PPTA:1,2014-06-05T08:00:00Z,30.2791,-87.5561,24.53,1111122 
DISL,ioos:station:DISL:PPTA:1,2014-06-05T08:30:00Z,30.2791,-87.5561,23.95,1111122 
DISL,ioos:station:DISL:PPTA:1,2014-06-05T09:00:00Z,30.2791,-87.5561,23.78,1111122 
DISL,ioos:station:DISL:PPTA:1,2014-06-05T09:30:00Z,30.2791,-87.5561,23.74,1111122 
DISL,ioos:station:DISL:PPTA:1,2014-06-05T10:00:00Z,30.2791,-87.5561,23.68,1111122 
DISL,ioos:station:DISL:PPTA:1,2014-06-05T10:30:00Z,30.2791,-87.5561,23.47,1111122 
DISL,ioos:station:DISL:PPTA:1,2014-06-05T11:00:00Z,30.2791,-87.5561,23.68,1111122 
DISL,ioos:station:DISL:PPTA:1,2014-06-05T11:30:00Z,30.2791,-87.5561,23.92,1111122 
DISL,ioos:station:DISL:PPTA:1,2014-06-05T12:00:00Z,30.2791,-87.5561,24.39,1111122 
DISL,ioos:station:DISL:PPTA:1,2014-06-05T12:30:00Z,30.2791,-87.5561,24.92,1111122 
DISL,ioos:station:DISL:PPTA:1,2014-06-05T13:00:00Z,30.2791,-87.5561,25.31,1111122 
DISL,ioos:station:DISL:PPTA:1,2014-06-05T13:30:00Z,30.2791,-87.5561,25.94,1111122 
DISL,ioos:station:DISL:PPTA:1,2014-06-05T14:00:00Z,30.2791,-87.5561,26.0,1111122 
DISL,ioos:station:DISL:PPTA:1,2014-06-05T14:30:00Z,30.2791,-87.5561,26.44,1111122 
DISL,ioos:station:DISL:PPTA:1,2014-06-05T15:00:00Z,30.2791,-87.5561,26.76,1111122 
DISL,ioos:station:DISL:PPTA:1,2014-06-05T15:30:00Z,30.2791,-87.5561,27.03,1111122 
DISL,ioos:station:DISL:PPTA:1,2014-06-05T16:00:00Z,30.2791,-87.5561,27.51,1111122 
DISL,ioos:station:DISL:PPTA:1,2014-06-05T16:30:00Z,30.2791,-87.5561,27.8,1111122 
DISL,ioos:station:DISL:PPTA:1,2014-06-05T17:00:00Z,30.2791,-87.5561,27.73,1111122 
DISL,ioos:station:DISL:PPTA:1,2014-06-05T17:30:00Z,30.2791,-87.5561,27.84,1111122 
DISL,ioos:station:DISL:PPTA:1,2014-06-05T18:00:00Z,30.2791,-87.5561,27.97,1111122 
DISL,ioos:station:DISL:PPTA:1,2014-06-05T18:30:00Z,30.2791,-87.5561,28.15,1111122 
DISL,ioos:station:DISL:PPTA:1,2014-06-05T19:00:00Z,30.2791,-87.5561,28.53,1111122 
DISL,ioos:station:DISL:PPTA:1,2014-06-05T19:30:00Z,30.2791,-87.5561,28.53,1111122 
DISL,ioos:station:DISL:PPTA:1,2014-06-05T20:00:00Z,30.2791,-87.5561,29.07,1111122 
DISL,ioos:station:DISL:PPTA:1,2014-06-05T20:30:00Z,30.2791,-87.5561,29.07,1111122 
DISL,ioos:station:DISL:PPTA:1,2014-06-05T21:00:00Z,30.2791,-87.5561,28.66,1111122 
DISL,ioos:station:DISL:PPTA:1,2014-06-05T21:30:00Z,30.2791,-87.5561,28.39,1111122 
DISL,ioos:station:DISL:PPTA:1,2014-06-05T22:00:00Z,30.2791,-87.5561,27.99,1111122 
DISL,ioos:station:DISL:PPTA:1,2014-06-05T22:30:00Z,30.2791,-87.5561,28.62,1111122 
DISL,ioos:station:DISL:PPTA:1,2014-06-05T23:00:00Z,30.2791,-87.5561,27.7,1111122 
DISL,ioos:station:DISL:PPTA:1,2014-06-05T23:30:00Z,30.2791,-87.5561,28.52,1111122 
DISL,ioos:station:DISL:PPTA:1,2014-06-06T00:00:00Z,30.2791,-87.5561,28.18,1111122 
DISL,ioos:station:DISL:PPTA:1,2014-06-06T00:30:00Z,30.2791,-87.5561,27.47,1111122 
DISL,ioos:station:DISL:PPTA:1,2014-06-06T01:00:00Z,30.2791,-87.5561,26.6,1111122 
DISL,ioos:station:DISL:PPTA:1,2014-06-06T01:30:00Z,30.2791,-87.5561,26.5,1111122 
DISL,ioos:station:DISL:PPTA:1,2014-06-06T02:00:00Z,30.2791,-87.5561,26.41,1111122 
DISL,ioos:station:DISL:PPTA:1,2014-06-06T02:30:00Z,30.2791,-87.5561,26.45,1111122 
DISL,ioos:station:DISL:PPTA:1,2014-06-06T03:00:00Z,30.2791,-87.5561,26.42,1111122 
DISL,ioos:station:DISL:PPTA:1,2014-06-06T03:30:00Z,30.2791,-87.5561,26.28,1111122 
DISL,ioos:station:DISL:PPTA:1,2014-06-06T04:00:00Z,30.2791,-87.5561,26.31,1111122 
DISL,ioos:station:DISL:PPTA:1,2014-06-06T04:30:00Z,30.2791,-87.5561,26.21,1111122 
DISL,ioos:station:DISL:PPTA:1,2014-06-06T05:00:00Z,30.2791,-87.5561,26.28,1111122 
DISL,ioos:station:DISL:PPTA:1,2014-06-06T05:30:00Z,30.2791,-87.5561,26.14,1111122 
DISL,ioos:station:DISL:PPTA:1,2014-06-06T06:00:00Z,30.2791,-87.5561,26.11,1111122 
DISL,ioos:station:DISL:PPTA:1,2014-06-06T06:30:00Z,30.2791,-87.5561,26.01,1111122 
DISL,ioos:station:DISL:PPTA:1,2014-06-06T07:00:00Z,30.2791,-87.5561,25.87,1111122 
DISL,ioos:station:DISL:PPTA:1,2014-06-06T07:30:00Z,30.2791,-87.5561,25.98,1111122 
DISL,ioos:station:DISL:PPTA:1,2014-06-06T08:00:00Z,30.2791,-87.5561,26.01,1111122 
DISL,ioos:station:DISL:PPTA:1,2014-06-06T08:30:00Z,30.2791,-87.5561,25.84,1111122 
DISL,ioos:station:DISL:PPTA:1,2014-06-06T09:00:00Z,30.2791,-87.5561,25.94,1111122 
DISL,ioos:station:DISL:PPTA:1,2014-06-06T09:30:00Z,30.2791,-87.5561,25.88,1111122 
DISL,ioos:station:DISL:PPTA:1,2014-06-06T10:00:00Z,30.2791,-87.5561,25.57,1111122 
DISL,ioos:station:DISL:PPTA:1,2014-06-06T10:30:00Z,30.2791,-87.5561,25.17,1111122 
DISL,ioos:station:DISL:PPTA:1,2014-06-06T11:00:00Z,30.2791,-87.5561,25.07,1111122 
DISL,ioos:station:DISL:PPTA:1,2014-06-06T11:30:00Z,30.2791,-87.5561,25.18,1111122 
DISL,ioos:station:DISL:PPTA:1,2014-06-06T12:00:00Z,30.2791,-87.5561,25.43,1111122 
DISL,ioos:station:DISL:PPTA:1,2014-06-06T12:30:00Z,30.2791,-87.5561,26.09,1111122 
DISL,ioos:station:DISL:PPTA:1,2014-06-06T13:00:00Z,30.2791,-87.5561,26.48,1111122 
DISL,ioos:station:DISL:PPTA:1,2014-06-06T13:30:00Z,30.2791,-87.5561,26.69,1111122 
DISL,ioos:station:DISL:PPTA:1,2014-06-06T14:00:00Z,30.2791,-87.5561,27.77,1111122 
DISL,ioos:station:DISL:PPTA:1,2014-06-06T14:30:00Z,30.2791,-87.5561,28.13,1111122 
DISL,ioos:station:DISL:PPTA:1,2014-06-06T15:00:00Z,30.2791,-87.5561,27.85,1111122 
DISL,ioos:station:DISL:PPTA:1,2014-06-06T15:30:00Z,30.2791,-87.5561,28.09,1111122 
DISL,ioos:station:DISL:PPTA:1,2014-06-06T16:00:00Z,30.2791,-87.5561,28.23,1111122 
DISL,ioos:station:DISL:PPTA:1,2014-06-06T16:30:00Z,30.2791,-87.5561,28.16,1111122 
DISL,ioos:station:DISL:PPTA:1,2014-06-06T17:00:00Z,30.2791,-87.5561,28.33,1111122 
DISL,ioos:station:DISL:PPTA:1,2014-06-06T17:30:00Z,30.2791,-87.5561,28.78,1111122 
DISL,ioos:station:DISL:PPTA:1,2014-06-06T18:00:00Z,30.2791,-87.5561,28.61,1111122 
DISL,ioos:station:DISL:PPTA:1,2014-06-06T18:30:00Z,30.2791,-87.5561,29.67,1111122 
DISL,ioos:station:DISL:PPTA:1,2014-06-06T19:00:00Z,30.2791,-87.5561,29.85,1111122 
DISL,ioos:station:DISL:PPTA:1,2014-06-06T19:30:00Z,30.2791,-87.5561,29.53,1111122 
DISL,ioos:station:DISL:PPTA:1,2014-06-06T20:00:00Z,30.2791,-87.5561,29.29,1111122 
DISL,ioos:station:DISL:PPTA:1,2014-06-06T20:30:00Z,30.2791,-87.5561,29.81,1111122 
DISL,ioos:station:DISL:PPTA:1,2014-06-06T21:00:00Z,30.2791,-87.5561,29.55,1111122 
DISL,ioos:station:DISL:PPTA:1,2014-06-06T21:30:00Z,30.2791,-87.5561,29.45,1111122 
DISL,ioos:station:DISL:PPTA:1,2014-06-06T22:00:00Z,30.2791,-87.5561,29.18,1111122 
DISL,ioos:station:DISL:PPTA:1,2014-06-06T22:30:00Z,30.2791,-87.5561,29.46,1111122 
DISL,ioos:station:DISL:PPTA:1,2014-06-06T23:00:00Z,30.2791,-87.5561,28.75,1111122 
DISL,ioos:station:DISL:PPTA:1,2014-06-06T23:30:00Z,30.2791,-87.5561,27.94,1111122 